{"data":{"norad_id":58475,"intl_designator":"2023-186C","name":"STARLINK-30941","alt_names":[],"object_type":"PAYLOAD","status":"ACTIVE","operator":null,"country":"US","launch_date":"2023-12-03","launch_site_code":"AFETR","launch_vehicle":null,"mission":null,"orbit_class":"UNKNOWN","rcs_meters":null,"size_class":null,"mass_kg":null,"dimensions":null,"purposes":["comms"],"wikipedia_slug":null,"has_3d_model":false,"image_url":null,"decayed_at":null,"tle_current":{"epoch":"2026-05-24T23:48:15.800256Z","epoch_age_seconds":69632,"freshness":"FRESH","line1":"1 58475U 23186C   26144.99184954  .00003021  00000+0  11930-3 0  9997","line2":"2 58475  43.0039 356.3166 0001791 266.0088  94.0559 15.27575506137521","mean_motion":15.27575506,"eccentricity":0.0001791,"inclination_deg":43.0039,"raan_deg":356.3166,"arg_perigee_deg":266.0088,"mean_anomaly_deg":94.0559,"bstar":0.0001193,"rev_number":13752,"period_min":94.267026038581,"perigee_km":481.83371188546,"apogee_km":484.29139356524,"semimajor_km":6861.1995527254,"source":"CELESTRAK","updated_at":"2026-05-25T13:38:18.649305Z"}}}